Date String (YYYY-MM-DD hh:mm:ss) UTC,Instrument flags,Ambient pressure (hPa),Sample flow (lpm),Bypass flow (lpm),Sample temperature (°C),Ambient temperature (°C),ASC tube jacket temperature (°C),LED temperature (°C),Box temperature (°C),Sample RH (%),Span deviation,Mass concentration (μg/m³),Mass concentration (μg/m³),Mass concentration (μg/m³)
DateTimeUTC,F1_M11,P_M11,Q1_M11,Q2_M11,T1_M11,T2_M11,T3_M11,T4_M11,T5_M11,U1_M11,ZSPAN_M11,X2_M11,X0_M11,X1_M11
2023-05-15 22:00:00,,0840.6,4.99,0.00,29.4,27.7,00.0,37.7,30.9,24.9,0000.0,0004.97,0007.28,0004.82
2023-05-15 22:01:00,,0840.5,5.01,0.00,29.3,27.7,00.0,37.7,30.9,24.9,0000.0,0004.98,0007.25,0004.83
2023-05-15 22:02:00,,0840.5,5.01,0.00,29.3,27.7,00.0,37.7,31.0,25.2,0000.0,0004.99,0007.56,0004.84
2023-05-15 22:03:00,,0840.5,5.00,0.00,29.4,27.8,00.0,37.7,31.0,25.3,0000.0,0005.01,0007.59,0004.84
2023-05-15 22:04:00,,0840.5,4.98,0.00,29.4,27.8,00.0,37.7,30.9,25.2,0000.0,0005.00,0007.81,0004.84
2023-05-15 22:05:00,,0840.5,5.00,0.00,29.4,27.7,00.0,37.7,30.9,25.2,0000.0,0004.99,0007.85,0004.83
2023-05-15 22:06:00,,0840.6,5.01,0.00,29.3,27.7,00.0,37.7,30.9,25.2,0000.0,0005.00,0007.85,0004.84
2023-05-15 22:07:00,,0840.6,5.00,0.00,29.4,27.7,00.0,37.7,31.0,24.8,0000.0,0005.01,0007.77,0004.85
2023-05-15 22:08:00,,0840.6,4.98,0.00,29.4,27.8,00.0,37.7,31.0,24.7,0000.0,0005.04,0007.81,0004.88
2023-05-15 22:09:00,,0840.6,4.99,0.00,29.4,27.8,00.0,37.7,31.0,24.7,0000.0,0005.06,0007.67,0004.90
2023-05-15 22:10:00,,0840.6,5.00,0.00,29.4,27.9,00.0,37.7,31.0,24.7,0000.0,0005.09,0007.70,0004.92
2023-05-15 22:11:00,,0840.6,5.01,0.00,29.4,27.9,00.0,37.8,31.0,24.6,0000.0,0005.11,0007.78,0004.94
2023-05-15 22:12:00,,0840.5,5.00,0.00,29.4,28.0,00.0,37.8,31.0,25.0,0000.0,0005.14,0007.79,0004.95
2023-05-15 22:13:00,,0840.5,4.99,0.00,29.4,28.0,00.0,37.8,31.0,24.9,0000.0,0005.17,0007.61,0004.96
2023-05-15 22:14:00,,0840.5,5.01,0.00,29.4,28.0,00.0,37.8,31.0,24.8,0000.0,0005.19,0008.39,0004.98
2023-05-15 22:15:00,,0840.6,5.00,0.00,29.4,28.1,00.0,37.8,31.0,24.7,0000.0,0005.22,0008.22,0004.99
2023-05-15 22:16:00,,0840.5,4.99,0.00,29.5,28.1,00.0,37.8,31.1,24.7,0000.0,0005.24,0008.22,0005.00
2023-05-15 22:17:00,,0840.6,5.01,0.00,29.5,28.1,00.0,37.8,31.1,24.7,0000.0,0005.24,0008.20,0005.01
2023-05-15 22:18:00,,0840.5,5.01,0.00,29.5,28.1,00.0,37.8,31.1,24.8,0000.0,0005.23,0008.18,0005.01
2023-05-15 22:19:00,,0840.6,4.98,0.00,29.5,28.1,00.0,37.8,31.1,24.7,0000.0,0005.23,0008.19,0005.00
2023-05-15 22:20:00,,0840.6,5.00,0.00,29.5,28.2,00.0,37.8,31.1,24.7,0000.0,0005.24,0008.21,0005.00
2023-05-15 22:21:00,,0840.6,5.01,0.00,29.5,28.2,00.0,37.8,31.1,24.8,0000.0,0005.24,0008.22,0005.00
2023-05-15 22:22:00,,0840.6,4.98,0.00,29.5,28.2,00.0,37.8,31.2,24.7,0000.0,0005.24,0008.62,0004.99
2023-05-15 22:23:00,,0840.6,5.00,0.00,29.6,28.2,00.0,37.9,31.2,24.8,0000.0,0005.23,0008.89,0005.00
2023-05-15 22:24:00,,0840.6,5.01,0.00,29.6,28.2,00.0,37.9,31.2,24.7,0000.0,0005.20,0008.81,0005.00
2023-05-15 22:25:00,,0840.6,5.01,0.00,29.6,28.2,00.0,37.9,31.2,24.5,0000.0,0005.18,0008.12,0005.00
2023-05-15 22:26:00,,0840.6,4.98,0.00,29.6,28.3,00.0,37.9,31.2,24.5,0000.0,0005.16,0007.89,0005.01
2023-05-15 22:27:00,,0840.5,5.01,0.00,29.6,28.3,00.0,37.9,31.2,24.5,0000.0,0005.15,0007.84,0005.01
2023-05-15 22:28:00,,0840.6,5.01,0.00,29.6,28.3,00.0,37.9,31.2,24.5,0000.0,0005.16,0007.85,0005.02
2023-05-15 22:29:00,,0840.6,4.99,0.00,29.6,28.3,00.0,37.9,31.2,24.4,0000.0,0005.21,0007.95,0005.02
2023-05-15 22:30:00,,0840.6,5.01,0.00,29.7,28.3,00.0,37.9,31.3,24.5,0000.0,0005.20,0008.00,0005.02
2023-05-15 22:31:00,,0840.6,5.00,0.00,29.7,28.3,00.0,38.0,31.3,24.7,0000.0,0005.19,0008.01,0005.01
2023-05-15 22:32:00,,0840.6,5.01,0.00,29.7,28.3,00.0,38.0,31.3,24.8,0000.0,0005.17,0008.03,0004.99
2023-05-15 22:33:00,,0840.6,4.99,0.00,29.7,28.3,00.0,38.0,31.3,24.4,0000.0,0005.18,0007.62,0004.99
2023-05-15 22:34:00,,0840.6,5.01,0.00,29.7,28.3,00.0,38.0,31.3,24.3,0000.0,0005.17,0007.31,0004.98
2023-05-15 22:35:00,,0840.6,5.01,0.00,29.7,28.4,00.0,38.0,31.3,24.3,0000.0,0005.15,0007.36,0004.97
2023-05-15 22:36:00,,0840.6,5.00,0.00,29.7,28.4,00.0,38.0,31.3,24.5,0000.0,0005.16,0007.39,0004.96
2023-05-15 22:37:00,,0840.6,5.00,0.00,29.7,28.4,00.0,38.0,31.3,24.3,0000.0,0005.17,0007.41,0004.96
2023-05-15 22:38:00,,0840.6,5.00,0.00,29.7,28.4,00.0,38.0,31.3,24.3,0000.0,0005.18,0007.44,0004.97
2023-05-15 22:39:00,,0840.6,5.00,0.00,29.7,28.4,00.0,38.0,31.3,24.5,0000.0,0005.18,0007.44,0004.97
2023-05-15 22:40:00,,0840.6,5.00,0.00,29.8,28.4,00.0,38.1,31.3,24.5,0000.0,0005.15,0007.80,0004.96
2023-05-15 22:41:00,,0840.6,5.01,0.00,29.8,28.4,00.0,38.1,31.3,24.6,0000.0,0005.13,0007.76,0004.96
2023-05-15 22:42:00,,0840.6,5.01,0.00,29.8,28.4,00.0,38.1,31.4,24.4,0000.0,0005.16,0007.80,0004.96
2023-05-15 22:43:00,,0840.6,5.00,0.00,29.8,28.4,00.0,38.1,31.4,24.5,0000.0,0005.17,0007.72,0004.98
2023-05-15 22:44:00,,0840.6,5.01,0.00,29.8,28.4,00.0,38.1,31.4,24.6,0000.0,0005.15,0007.86,0004.98
2023-05-15 22:45:00,,0840.6,5.00,0.00,29.8,28.4,00.0,38.1,31.4,24.8,0000.0,0005.14,0007.86,0004.97
2023-05-15 22:46:00,,0840.6,4.99,0.00,29.8,28.4,00.0,38.1,31.4,24.6,0000.0,0005.16,0007.87,0004.97
2023-05-15 22:47:00,,0840.6,5.01,0.00,29.8,28.4,00.0,38.1,31.4,24.6,0000.0,0005.15,0007.90,0004.96
2023-05-15 22:48:00,,0840.5,5.00,0.00,29.8,28.4,00.0,38.1,31.4,24.5,0000.0,0005.13,0007.91,0004.95
2023-05-15 22:49:00,,0840.5,5.00,0.00,29.8,28.4,00.0,38.1,31.4,24.8,0000.0,0005.11,0008.16,0004.93
2023-05-15 22:50:00,,0840.5,5.00,0.00,29.8,28.4,00.0,38.1,31.4,24.4,0000.0,0005.11,0008.27,0004.92
2023-05-15 22:51:00,,0840.5,5.01,0.00,29.8,28.4,00.0,38.1,31.4,24.6,0000.0,0005.10,0007.83,0004.90
2023-05-15 22:52:00,,0840.5,5.00,0.00,29.8,28.4,00.0,38.2,31.4,24.3,0000.0,0005.09,0007.80,0004.90
2023-05-15 22:53:00,,0840.5,5.00,0.00,29.8,28.4,00.0,38.2,31.4,24.3,0000.0,0005.06,0008.07,0004.90
2023-05-15 22:54:00,,0840.4,4.99,0.00,29.8,28.4,00.0,38.2,31.4,24.3,0000.0,0005.05,0008.29,0004.88
2023-05-15 22:55:00,,0840.5,5.01,0.00,29.8,28.3,00.0,38.2,31.4,24.7,0000.0,0005.03,0008.16,0004.86
2023-05-15 22:56:00,,0840.4,5.01,0.00,29.8,28.4,00.0,38.2,31.4,24.9,0000.0,0005.01,0008.11,0004.83
2023-05-15 22:57:00,,0840.3,5.01,0.00,29.8,28.4,00.0,38.2,31.4,24.9,0000.0,0005.00,0008.10,0004.83
2023-05-15 22:58:00,,0840.3,4.99,0.00,29.8,28.4,00.0,38.2,31.4,24.5,0000.0,0004.99,0008.07,0004.82
2023-05-15 22:59:00,,0840.3,4.99,0.00,29.8,28.3,00.0,38.2,31.4,24.8,0000.0,0004.98,0008.07,0004.81
